"Sample Date","Sample Time","Sample Value","Units","Flow Rate","Laser Status","Micron Size 0","Counts/Channel 0","Micron Size 1","Counts/Channel 1","Micron Size 2","Counts/Channel 2","Micron Size 3","Counts/Channel 3","Micron Size 4","Counts/Channel 4","Micron Size 5","Counts/Channel 5","Micron Size 6","Counts/Channel 6","Micron Size 7","Counts/Channel 7","Micron Size 8","Counts/Channel 8","Micron Size 9","Counts/Channel 9","Micron Size 10","Counts/Channel 10","Micron Size 11","Counts/Channel 11","Micron Size 12","Counts/Channel 12","Micron Size 13","Counts/Channel 13","Micron Size 14","Counts/Channel 14","Micron Size 15","Counts/Channel 15","Micron Size 16","Counts/Channel 16","Micron Size 17","Counts/Channel 17","Micron Size 18","Counts/Channel 18","Micron Size 19","Counts/Channel 19","Micron Size 20","Counts/Channel 20","Micron Size 21","Counts/Channel 21","Micron Size 22","Counts/Channel 22","Micron Size 23","Counts/Channel 23","Micron Size 24","Counts/Channel 24","Micron Size 25","Counts/Channel 25","Micron Size 26","Counts/Channel 26","Micron Size 27","Counts/Channel 27","Micron Size 28","Counts/Channel 28","Micron Size 29","Counts/Channel 29","Micron Size 30","Counts/Channel 30","Micron Size 31","Counts/Channel 31"
"03/04/08","08:00:04",37238.000,"cc",28320.371,1,0.100,32397.000,0.200,2801.000,0.300,951.000,0.500,831.000,1.000,258.000,5.000,0
"03/04/08","08:00:10",37343.000,"cc",28306.268,1,0.100,32639.000,0.200,2638.000,0.300,975.000,0.500,867.000,1.000,224.000,5.000,0
"03/04/08","08:00:16",37291.000,"cc",28339.746,1,0.100,32644.000,0.200,2676.000,0.300,880.000,0.500,840.000,1.000,251.000,5.000,0
"03/04/08","08:00:22",35676.000,"cc",28351.910,1,0.100,31272.000,0.200,2602.000,0.300,796.000,0.500,773.000,1.000,233.000,5.000,0
"03/04/08","08:00:28",35385.000,"cc",28235.381,1,0.100,30998.000,0.200,2646.000,0.300,778.000,0.500,747.000,1.000,216.000,5.000,0
"03/04/08","08:00:34",35603.000,"cc",28361.863,1,0.100,31047.000,0.200,2670.000,0.300,907.000,0.500,768.000,1.000,211.000,5.000,0
"03/04/08","08:00:40",35315.000,"cc",28337.352,1,0.100,30917.000,0.200,2616.000,0.300,786.000,0.500,786.000,1.000,210.000,5.000,0
"03/04/08","08:00:46",36641.000,"cc",28331.395,1,0.100,32088.000,0.200,2640.000,0.300,859.000,0.500,792.000,1.000,262.000,5.000,0
"03/04/08","08:00:52",36085.000,"cc",28299.467,1,0.100,31409.000,0.200,2806.000,0.300,860.000,0.500,790.000,1.000,220.000,5.000,0
"03/04/08","08:00:58",36787.000,"cc",28313.865,1,0.100,32017.000,0.200,2768.000,0.300,875.000,0.500,896.000,1.000,231.000,5.000,0
"03/04/08","08:01:04",37067.000,"cc",28319.734,1,0.100,32299.000,0.200,2745.000,0.300,914.000,0.500,846.000,1.000,263.000,5.000,0
"03/04/08","08:01:10",38635.000,"cc",28303.979,1,0.100,33895.000,0.200,2641.000,0.300,889.000,0.500,965.000,1.000,245.000,5.000,0
"03/04/08","08:01:16",38266.000,"cc",28309.000,1,0.100,33526.000,0.200,2713.000,0.300,915.000,0.500,877.000,1.000,235.000,5.000,0
"03/04/08","08:01:22",38621.000,"cc",28300.992,1,0.100,33749.000,0.200,2796.000,0.300,862.000,0.500,958.000,1.000,256.000,5.000,0
"03/04/08","08:01:28",38711.000,"cc",28320.283,1,0.100,33787.000,0.200,2752.000,0.300,945.000,0.500,944.000,1.000,283.000,5.000,0
"03/04/08","08:01:34",38983.000,"cc",28345.346,1,0.100,33792.000,0.200,2944.000,0.300,1041.000,0.500,924.000,1.000,282.000,5.000,0
"03/04/08","08:01:40",38696.000,"cc",28317.057,1,0.100,33858.000,0.200,2825.000,0.300,853.000,0.500,900.000,1.000,260.000,5.000,0
"03/04/08","08:01:46",39179.000,"cc",28311.561,1,0.100,34076.000,0.200,2926.000,0.300,999.000,0.500,895.000,1.000,283.000,5.000,0
"03/04/08","08:01:52",38965.000,"cc",28284.234,1,0.100,34000.000,0.200,2778.000,0.300,991.000,0.500,929.000,1.000,267.000,5.000,0
"03/04/08","08:01:58",39311.000,"cc",28360.945,1,0.100,34066.000,0.200,2924.000,0.300,1024.000,0.500,1025.000,1.000,272.000,5.000,0
"03/04/08","08:02:04",39170.000,"cc",28337.703,1,0.100,34161.000,0.200,2851.000,0.300,958.000,0.500,935.000,1.000,265.000,5.000,0
"03/04/08","08:02:10",38297.000,"cc",28293.883,1,0.100,33365.000,0.200,2899.000,0.300,924.000,0.500,825.000,1.000,284.000,5.000,0
"03/04/08","08:02:16",39186.000,"cc",28345.557,1,0.100,34293.000,0.200,2792.000,0.300,912.000,0.500,908.000,1.000,281.000,5.000,0
"03/04/08","08:02:22",39179.000,"cc",28414.449,1,0.100,34112.000,0.200,2878.000,0.300,945.000,0.500,966.000,1.000,278.000,5.000,0
"03/04/08","08:02:28",39452.000,"cc",28329.932,1,0.100,34304.000,0.200,2914.000,0.300,935.000,0.500,998.000,1.000,301.000,5.000,0
"03/04/08","08:02:34",39301.000,"cc",28264.805,1,0.100,34161.000,0.200,2889.000,0.300,996.000,0.500,966.000,1.000,289.000,5.000,0
"03/04/08","08:02:40",38884.000,"cc",28252.568,1,0.100,33787.000,0.200,2957.000,0.300,927.000,0.500,958.000,1.000,255.000,5.000,0
"03/04/08","08:02:46",38731.000,"cc",28388.154,1,0.100,33724.000,0.200,2788.000,0.300,972.000,0.500,956.000,1.000,291.000,5.000,0
"03/04/08","08:02:52",38693.000,"cc",28266.410,1,0.100,33665.000,0.200,2849.000,0.300,921.000,0.500,953.000,1.000,305.000,5.000,0
"03/04/08","08:02:58",38222.000,"cc",28325.395,1,0.100,33279.000,0.200,2820.000,0.300,933.000,0.500,915.000,1.000,275.000,5.000,0
"03/04/08","08:03:04",38837.000,"cc",28325.065,1,0.100,33601.000,0.200,3004.000,0.300,975.000,0.500,945.000,1.000,312.000,5.000,0
"03/04/08","08:03:10",38476.000,"cc",28281.147,1,0.100,33519.000,0.200,2855.000,0.300,918.000,0.500,914.000,1.000,270.000,5.000,0
"03/04/08","08:03:16",38817.000,"cc",28339.422,1,0.100,33687.000,0.200,2892.000,0.300,972.000,0.500,943.000,1.000,323.000,5.000,0
"03/04/08","08:03:22",38730.000,"cc",28314.897,1,0.100,33545.000,0.200,2952.000,0.300,978.000,0.500,940.000,1.000,315.000,5.000,0
"03/04/08","08:03:28",38113.000,"cc",28249.926,1,0.100,33020.000,0.200,2926.000,0.300,993.000,0.500,895.000,1.000,279.000,5.000,0
"03/04/08","08:03:34",38661.000,"cc",28356.609,1,0.100,33421.000,0.200,2939.000,0.300,1018.000,0.500,961.000,1.000,322.000,5.000,0
"03/04/08","08:03:40",37657.000,"cc",28415.785,1,0.100,32459.000,0.200,2999.000,0.300,971.000,0.500,938.000,1.000,290.000,5.000,0
"03/04/08","08:03:46",37909.000,"cc",28297.035,1,0.100,32952.000,0.200,2912.000,0.300,863.000,0.500,900.000,1.000,282.000,5.000,0
"03/04/08","08:03:52",37615.000,"cc",28273.104,1,0.100,32653.000,0.200,2861.000,0.300,899.000,0.500,935.000,1.000,267.000,5.000,0
"03/04/08","08:03:58",36562.000,"cc",28311.920,1,0.100,31621.000,0.200,2875.000,0.300,895.000,0.500,903.000,1.000,268.000,5.000,0
"03/04/08","08:04:04",35009.000,"cc",28273.648,1,0.100,30453.000,0.200,2751.000,0.300,814.000,0.500,741.000,1.000,250.000,5.000,0
"03/04/08","08:04:10",35283.000,"cc",28334.092,1,0.100,30572.000,0.200,2796.000,0.300,858.000,0.500,819.000,1.000,238.000,5.000,0
"03/04/08","08:04:16",35209.000,"cc",28340.555,1,0.100,30362.000,0.200,2876.000,0.300,891.000,0.500,847.000,1.000,233.000,5.000,0
"03/04/08","08:04:22",31352.000,"cc",28341.736,1,0.100,27250.000,0.200,2723.000,0.300,654.000,0.500,561.000,1.000,164.000,5.000,0
"03/04/08","08:04:28",32338.000,"cc",28350.973,1,0.100,28081.000,0.200,2802.000,0.300,673.000,0.500,624.000,1.000,158.000,5.000,0
"03/04/08","08:04:34",31557.000,"cc",28267.152,1,0.100,27318.000,0.200,2891.000,0.300,629.000,0.500,540.000,1.000,179.000,5.000,0
"03/04/08","08:04:40",31770.000,"cc",28323.490,1,0.100,27433.000,0.200,2900.000,0.300,675.000,0.500,575.000,1.000,187.000,5.000,0
"03/04/08","08:04:46",31894.000,"cc",28335.242,1,0.100,27532.000,0.200,2954.000,0.300,687.000,0.500,549.000,1.000,172.000,5.000,0
"03/04/08","08:04:52",32112.000,"cc",28238.250,1,0.100,27825.000,0.200,2909.000,0.300,659.000,0.500,578.000,1.000,141.000,5.000,0
"03/04/08","08:04:58",32555.000,"cc",28329.520,1,0.100,28008.000,0.200,3067.000,0.300,725.000,0.500,592.000,1.000,163.000,5.000,0
"03/04/08","08:05:04",32311.000,"cc",28325.244,1,0.100,27910.000,0.200,2979.000,0.300,721.000,0.500,570.000,1.000,131.000,5.000,0
"03/04/08","08:05:10",32144.000,"cc",28338.773,1,0.100,27732.000,0.200,3010.000,0.300,675.000,0.500,575.000,1.000,152.000,5.000,0
"03/04/08","08:05:16",32335.000,"cc",28324.576,1,0.100,27842.000,0.200,3029.000,0.300,729.000,0.500,559.000,1.000,176.000,5.000,0
"03/04/08","08:05:22",32161.000,"cc",28266.039,1,0.100,27801.000,0.200,2949.000,0.300,679.000,0.500,586.000,1.000,146.000,5.000,0
"03/04/08","08:05:28",32573.000,"cc",28236.578,1,0.100,28061.000,0.200,3025.000,0.300,728.000,0.500,607.000,1.000,152.000,5.000,0
"03/04/08","08:05:34",32743.000,"cc",28358.229,1,0.100,28222.000,0.200,3054.000,0.300,726.000,0.500,579.000,1.000,162.000,5.000,0
"03/04/08","08:05:40",32161.000,"cc",28360.027,1,0.100,27776.000,0.200,2910.000,0.300,730.000,0.500,565.000,1.000,180.000,5.000,0
"03/04/08","08:05:46",32707.000,"cc",28324.539,1,0.100,28123.000,0.200,3050.000,0.300,738.000,0.500,607.000,1.000,189.000,5.000,0
"03/04/08","08:05:52",33385.000,"cc",28291.217,1,0.100,28511.000,0.200,3211.000,0.300,827.000,0.500,672.000,1.000,164.000,5.000,0
"03/04/08","08:05:58",32781.000,"cc",28298.170,1,0.100,28196.000,0.200,3069.000,0.300,744.000,0.500,598.000,1.000,174.000,5.000,0
"03/04/08","08:06:04",33097.000,"cc",28267.772,1,0.100,28497.000,0.200,3016.000,0.300,777.000,0.500,623.000,1.000,184.000,5.000,0
"03/04/08","08:06:10",33502.000,"cc",28298.496,1,0.100,28841.000,0.200,3048.000,0.300,806.000,0.500,644.000,1.000,163.000,5.000,0
"03/04/08","08:06:16",33005.000,"cc",28321.484,1,0.100,28392.000,0.200,3075.000,0.300,714.000,0.500,626.000,1.000,198.000,5.000,0
"03/04/08","08:06:22",33061.000,"cc",28379.713,1,0.100,28279.000,0.200,3118.000,0.300,841.000,0.500,647.000,1.000,176.000,5.000,0
"03/04/08","08:06:28",32583.000,"cc",28238.090,1,0.100,27912.000,0.200,3098.000,0.300,784.000,0.500,634.000,1.000,155.000,5.000,0
"03/04/08","08:06:34",33126.000,"cc",28289.488,1,0.100,28592.000,0.200,3044.000,0.300,727.000,0.500,594.000,1.000,169.000,5.000,0
"03/04/08","08:06:40",32951.000,"cc",28388.553,1,0.100,28363.000,0.200,3087.000,0.300,730.000,0.500,624.000,1.000,147.000,5.000,0
"03/04/08","08:06:46",32637.000,"cc",28352.680,1,0.100,27816.000,0.200,3210.000,0.300,803.000,0.500,629.000,1.000,179.000,5.000,0
"03/04/08","08:06:52",33202.000,"cc",28345.486,1,0.100,28688.000,0.200,3095.000,0.300,688.000,0.500,586.000,1.000,145.000,5.000,0
"03/04/08","08:06:58",32918.000,"cc",28348.320,1,0.100,28319.000,0.200,3107.000,0.300,703.000,0.500,619.000,1.000,170.000,5.000,0
"03/04/08","08:07:04",33245.000,"cc",28228.279,1,0.100,28675.000,0.200,3091.000,0.300,728.000,0.500,589.000,1.000,162.000,5.000,0
"03/04/08","08:07:10",33091.000,"cc",28300.443,1,0.100,28533.000,0.200,3141.000,0.300,705.000,0.500,562.000,1.000,150.000,5.000,0
"03/04/08","08:07:16",32705.000,"cc",28363.535,1,0.100,28252.000,0.200,2978.000,0.300,690.000,0.500,606.000,1.000,179.000,5.000,0
"03/04/08","08:07:22",31758.000,"cc",28319.637,1,0.100,27476.000,0.200,2882.000,0.300,694.000,0.500,552.000,1.000,154.000,5.000,0
"03/04/08","08:07:28",31692.000,"cc",28361.080,1,0.100,27495.000,0.200,2866.000,0.300,641.000,0.500,546.000,1.000,144.000,5.000,0
"03/04/08","08:07:34",31415.000,"cc",28356.898,1,0.100,27205.000,0.200,2961.000,0.300,622.000,0.500,520.000,1.000,107.000,5.000,0
"03/04/08","08:07:40",31681.000,"cc",28309.020,1,0.100,27462.000,0.200,2890.000,0.300,649.000,0.500,535.000,1.000,145.000,5.000,0
"03/04/08","08:07:46",31374.000,"cc",28323.766,1,0.100,27146.000,0.200,2849.000,0.300,669.000,0.500,548.000,1.000,162.000,5.000,0
"03/04/08","08:07:52",31227.000,"cc",28298.473,1,0.100,27073.000,0.200,2843.000,0.300,645.000,0.500,530.000,1.000,136.000,5.000,0
"03/04/08","08:07:58",31270.000,"cc",28273.799,1,0.100,27170.000,0.200,2769.000,0.300,656.000,0.500,538.000,1.000,137.000,5.000,0
"03/04/08","08:08:04",30312.000,"cc",28263.190,1,0.100,26253.000,0.200,2799.000,0.300,617.000,0.500,498.000,1.000,145.000,5.000,0
"03/04/08","08:08:10",30509.000,"cc",28344.352,1,0.100,26511.000,0.200,2752.000,0.300,684.000,0.500,449.000,1.000,113.000,5.000,0
"03/04/08","08:08:16",30371.000,"cc",28349.848,1,0.100,26570.000,0.200,2662.000,0.300,560.000,0.500,448.000,1.000,131.000,5.000,0
"03/04/08","08:08:22",29400.000,"cc",28367.959,1,0.100,25700.000,0.200,2623.000,0.300,534.000,0.500,421.000,1.000,122.000,5.000,0
"03/04/08","08:08:28",27680.000,"cc",28270.223,1,0.100,24318.000,0.200,2397.000,0.300,481.000,0.500,371.000,1.000,113.000,5.000,0
"03/04/08","08:08:34",28247.000,"cc",28330.506,1,0.100,24820.000,0.200,2431.000,0.300,504.000,0.500,379.000,1.000,113.000,5.000,0
"03/04/08","08:08:40",28928.000,"cc",28291.186,1,0.100,25398.000,0.200,2503.000,0.300,512.000,0.500,403.000,1.000,112.000,5.000,0
"03/04/08","08:08:46",28984.000,"cc",28305.912,1,0.100,25543.000,0.200,2474.000,0.300,473.000,0.500,385.000,1.000,109.000,5.000,0
"03/04/08","08:08:52",29195.000,"cc",28317.266,1,0.100,25605.000,0.200,2582.000,0.300,533.000,0.500,371.000,1.000,104.000,5.000,0
"03/04/08","08:08:58",29285.000,"cc",28258.211,1,0.100,25570.000,0.200,2670.000,0.300,559.000,0.500,393.000,1.000,93.000,5.000,0
"03/04/08","08:09:04",29565.000,"cc",28355.123,1,0.100,26059.000,0.200,2446.000,0.300,563.000,0.500,395.000,1.000,102.000,5.000,0
"03/04/08","08:09:10",29930.000,"cc",28332.379,1,0.100,26103.000,0.200,2636.000,0.300,650.000,0.500,442.000,1.000,99.000,5.000,0
"03/04/08","08:09:16",30031.000,"cc",28334.922,1,0.100,26323.000,0.200,2548.000,0.300,627.000,0.500,422.000,1.000,111.000,5.000,0
"03/04/08","08:09:22",29832.000,"cc",28364.936,1,0.100,26217.000,0.200,2584.000,0.300,546.000,0.500,380.000,1.000,105.000,5.000,0
"03/04/08","08:09:28",30445.000,"cc",28310.463,1,0.100,26519.000,0.200,2743.000,0.300,632.000,0.500,449.000,1.000,102.000,5.000,0
"03/04/08","08:09:34",30364.000,"cc",28316.898,1,0.100,26475.000,0.200,2663.000,0.300,621.000,0.500,482.000,1.000,123.000,5.000,0
"03/04/08","08:09:40",30062.000,"cc",28331.811,1,0.100,26345.000,0.200,2586.000,0.300,611.000,0.500,412.000,1.000,108.000,5.000,0
"03/04/08","08:09:46",29852.000,"cc",28325.877,1,0.100,26159.000,0.200,2545.000,0.300,591.000,0.500,436.000,1.000,121.000,5.000,0
"03/04/08","08:09:52",30031.000,"cc",28264.141,1,0.100,26154.000,0.200,2629.000,0.300,651.000,0.500,453.000,1.000,144.000,5.000,0
"03/04/08","08:09:58",32418.000,"cc",28291.025,1,0.100,27703.000,0.200,3108.000,0.300,835.000,0.500,607.000,1.000,165.000,5.000,0
"03/04/08","08:10:04",31951.000,"cc",28348.086,1,0.100,27656.000,0.200,2920.000,0.300,697.000,0.500,541.000,1.000,137.000,5.000,0
"03/04/08","08:10:10",31955.000,"cc",28327.172,1,0.100,27755.000,0.200,2960.000,0.300,641.000,0.500,489.000,1.000,110.000,5.000,0
"03/04/08","08:10:16",32053.000,"cc",28317.711,1,0.100,27845.000,0.200,2918.000,0.300,625.000,0.500,530.000,1.000,135.000,5.000,0
"03/04/08","08:10:22",32787.000,"cc",28312.607,1,0.100,28318.000,0.200,2980.000,0.300,735.000,0.500,591.000,1.000,163.000,5.000,0
"03/04/08","08:10:28",32415.000,"cc",28329.578,1,0.100,28124.000,0.200,2932.000,0.300,665.000,0.500,563.000,1.000,131.000,5.000,0
"03/04/08","08:10:34",32891.000,"cc",28360.387,1,0.100,28650.000,0.200,2921.000,0.300,690.000,0.500,505.000,1.000,125.000,5.000,0
"03/04/08","08:10:40",32112.000,"cc",28322.889,1,0.100,28050.000,0.200,2879.000,0.300,613.000,0.500,461.000,1.000,109.000,5.000,0
"03/04/08","08:10:46",33304.000,"cc",28309.803,1,0.100,28787.000,0.200,3116.000,0.300,717.000,0.500,536.000,1.000,148.000,5.000,0
"03/04/08","08:10:52",32982.000,"cc",28291.002,1,0.100,28653.000,0.200,2938.000,0.300,721.000,0.500,534.000,1.000,136.000,5.000,0
"03/04/08","08:10:58",33312.000,"cc",28352.926,1,0.100,28821.000,0.200,3107.000,0.300,716.000,0.500,532.000,1.000,136.000,5.000,0
"03/04/08","08:11:04",33492.000,"cc",28301.283,1,0.100,28878.000,0.200,3129.000,0.300,744.000,0.500,588.000,1.000,153.000,5.000,0
"03/04/08","08:11:10",33271.000,"cc",28326.430,1,0.100,28831.000,0.200,3002.000,0.300,735.000,0.500,551.000,1.000,152.000,5.000,0
"03/04/08","08:11:16",32156.000,"cc",28252.740,1,0.100,28054.000,0.200,2844.000,0.300,632.000,0.500,487.000,1.000,139.000,5.000,0
"03/04/08","08:11:22",32708.000,"cc",28297.852,1,0.100,28455.000,0.200,2935.000,0.300,675.000,0.500,506.000,1.000,137.000,5.000,0
"03/04/08","08:11:28",33398.000,"cc",28297.461,1,0.100,28994.000,0.200,2965.000,0.300,722.000,0.500,581.000,1.000,136.000,5.000,0
"03/04/08","08:11:34",35106.000,"cc",28376.703,1,0.100,30333.000,0.200,3233.000,0.300,808.000,0.500,576.000,1.000,156.000,5.000,0
"03/04/08","08:11:40",34614.000,"cc",28263.422,1,0.100,29942.000,0.200,3131.000,0.300,797.000,0.500,596.000,1.000,148.000,5.000,0
"03/04/08","08:11:46",34598.000,"cc",28301.059,1,0.100,29950.000,0.200,3126.000,0.300,798.000,0.500,564.000,1.000,160.000,5.000,0
"03/04/08","08:11:52",35132.000,"cc",28334.170,1,0.100,30513.000,0.200,3181.000,0.300,736.000,0.500,570.000,1.000,132.000,5.000,0
"03/04/08","08:11:58",35108.000,"cc",28372.420,1,0.100,30531.000,0.200,3025.000,0.300,772.000,0.500,633.000,1.000,147.000,5.000,0
"03/04/08","08:12:04",35824.000,"cc",28302.252,1,0.100,31085.000,0.200,3123.000,0.300,797.000,0.500,663.000,1.000,156.000,5.000,0
"03/04/08","08:12:10",35943.000,"cc",28306.012,1,0.100,31081.000,0.200,3270.000,0.300,817.000,0.500,610.000,1.000,165.000,5.000,0
"03/04/08","08:12:16",35819.000,"cc",28322.133,1,0.100,31030.000,0.200,3287.000,0.300,769.000,0.500,597.000,1.000,136.000,5.000,0
"03/04/08","08:12:22",36010.000,"cc",28370.463,1,0.100,31120.000,0.200,3253.000,0.300,825.000,0.500,672.000,1.000,140.000,5.000,0
"03/04/08","08:12:28",36356.000,"cc",28331.473,1,0.100,31285.000,0.200,3393.000,0.300,872.000,0.500,656.000,1.000,150.000,5.000,0
"03/04/08","08:12:34",36031.000,"cc",28253.047,1,0.100,31070.000,0.200,3336.000,0.300,824.000,0.500,664.000,1.000,137.000,5.000,0
"03/04/08","08:12:40",36521.000,"cc",28379.340,1,0.100,31550.000,0.200,3268.000,0.300,878.000,0.500,683.000,1.000,142.000,5.000,0
"03/04/08","08:12:46",35139.000,"cc",28291.602,1,0.100,30540.000,0.200,3012.000,0.300,789.000,0.500,637.000,1.000,161.000,5.000,0
"03/04/08","08:12:52",35917.000,"cc",28267.018,1,0.100,31022.000,0.200,3190.000,0.300,850.000,0.500,683.000,1.000,172.000,5.000,0
"03/04/08","08:12:58",34281.000,"cc",28370.260,1,0.100,29838.000,0.200,2967.000,0.300,743.000,0.500,586.000,1.000,147.000,5.000,0
"03/04/08","08:13:04",33008.000,"cc",28302.506,1,0.100,28982.000,0.200,2771.000,0.300,625.000,0.500,495.000,1.000,135.000,5.000,0
"03/04/08","08:13:10",32863.000,"cc",28303.643,1,0.100,28663.000,0.200,2903.000,0.300,673.000,0.500,494.000,1.000,130.000,5.000,0
"03/04/08","08:13:16",33225.000,"cc",28330.645,1,0.100,29133.000,0.200,2793.000,0.300,641.000,0.500,534.000,1.000,124.000,5.000,0
"03/04/08","08:13:22",32813.000,"cc",28334.619,1,0.100,28669.000,0.200,2820.000,0.300,688.000,0.500,516.000,1.000,120.000,5.000,0
"03/04/08","08:13:28",34265.000,"cc",28271.152,1,0.100,29725.000,0.200,2926.000,0.300,853.000,0.500,602.000,1.000,159.000,5.000,0
"03/04/08","08:13:34",33798.000,"cc",28311.744,1,0.100,29203.000,0.200,2993.000,0.300,801.000,0.500,615.000,1.000,186.000,5.000,0
"03/04/08","08:13:40",34476.000,"cc",28404.984,1,0.100,30047.000,0.200,2907.000,0.300,748.000,0.500,619.000,1.000,155.000,5.000,0
"03/04/08","08:13:46",34338.000,"cc",28294.627,1,0.100,29929.000,0.200,2943.000,0.300,777.000,0.500,554.000,1.000,135.000,5.000,0
"03/04/08","08:13:52",34239.000,"cc",28264.725,1,0.100,29724.000,0.200,3049.000,0.300,762.000,0.500,547.000,1.000,157.000,5.000,0
"03/04/08","08:13:58",34364.000,"cc",28306.648,1,0.100,29788.000,0.200,2995.000,0.300,806.000,0.500,627.000,1.000,148.000,5.000,0
"03/04/08","08:14:04",35041.000,"cc",28332.246,1,0.100,30370.000,0.200,3021.000,0.300,842.000,0.500,655.000,1.000,153.000,5.000,0
"03/04/08","08:14:10",35160.000,"cc",28310.897,1,0.100,30470.000,0.200,3175.000,0.300,775.000,0.500,589.000,1.000,151.000,5.000,0
"03/04/08","08:14:16",36056.000,"cc",28378.402,1,0.100,31213.000,0.200,3200.000,0.300,864.000,0.500,632.000,1.000,147.000,5.000,0
"03/04/08","08:14:22",36062.000,"cc",28325.945,1,0.100,31173.000,0.200,3167.000,0.300,911.000,0.500,637.000,1.000,174.000,5.000,0
"03/04/08","08:14:28",36335.000,"cc",28270.691,1,0.100,31501.000,0.200,3169.000,0.300,853.000,0.500,644.000,1.000,168.000,5.000,0
"03/04/08","08:14:34",35747.000,"cc",28280.438,1,0.100,31109.000,0.200,3065.000,0.300,772.000,0.500,643.000,1.000,158.000,5.000,0
"03/04/08","08:14:40",35995.000,"cc",28307.877,1,0.100,31124.000,0.200,3247.000,0.300,815.000,0.500,646.000,1.000,163.000,5.000,0
"03/04/08","08:14:46",35643.000,"cc",28343.592,1,0.100,31149.000,0.200,3007.000,0.300,745.000,0.500,602.000,1.000,140.000,5.000,0
"03/04/08","08:14:52",35995.000,"cc",28344.674,1,0.100,31455.000,0.200,3053.000,0.300,766.000,0.500,603.000,1.000,118.000,5.000,0
"03/04/08","08:14:58",35921.000,"cc",28276.922,1,0.100,31130.000,0.200,3190.000,0.300,822.000,0.500,621.000,1.000,158.000,5.000,0
"03/04/08","08:15:04",35915.000,"cc",28324.141,1,0.100,31320.000,0.200,3134.000,0.300,741.000,0.500,575.000,1.000,145.000,5.000,0
"03/04/08","08:15:10",36071.000,"cc",28299.047,1,0.100,31301.000,0.200,3192.000,0.300,833.000,0.500,611.000,1.000,134.000,5.000,0
"03/04/08","08:15:16",36031.000,"cc",28313.482,1,0.100,31198.000,0.200,3200.000,0.300,852.000,0.500,646.000,1.000,135.000,5.000,0
"03/04/08","08:15:22",36616.000,"cc",28380.457,1,0.100,31770.000,0.200,3282.000,0.300,828.000,0.500,598.000,1.000,138.000,5.000,0
"03/04/08","08:15:28",36980.000,"cc",28394.129,1,0.100,31989.000,0.200,3348.000,0.300,822.000,0.500,675.000,1.000,146.000,5.000,0
"03/04/08","08:15:34",36981.000,"cc",28255.352,1,0.100,31952.000,0.200,3317.000,0.300,927.000,0.500,634.000,1.000,151.000,5.000,0
"03/04/08","08:15:40",37642.000,"cc",28284.174,1,0.100,32842.000,0.200,3234.000,0.300,780.000,0.500,667.000,1.000,119.000,5.000,0
"03/04/08","08:15:46",37280.000,"cc",28284.795,1,0.100,32501.000,0.200,3211.000,0.300,864.000,0.500,589.000,1.000,115.000,5.000,0
"03/04/08","08:15:52",37508.000,"cc",28347.139,1,0.100,32427.000,0.200,3353.000,0.300,910.000,0.500,664.000,1.000,154.000,5.000,0
"03/04/08","08:15:58",37585.000,"cc",28279.998,1,0.100,32517.000,0.200,3334.000,0.300,888.000,0.500,720.000,1.000,126.000,5.000,0
"03/04/08","08:16:04",37852.000,"cc",28364.088,1,0.100,32839.000,0.200,3409.000,0.300,866.000,0.500,628.000,1.000,110.000,5.000,0
"03/04/08","08:16:10",38590.000,"cc",28267.645,1,0.100,33326.000,0.200,3424.000,0.300,954.000,0.500,737.000,1.000,149.000,5.000,0
"03/04/08","08:16:16",37826.000,"cc",28399.174,1,0.100,32763.000,0.200,3281.000,0.300,908.000,0.500,729.000,1.000,145.000,5.000,0
"03/04/08","08:16:22",37695.000,"cc",28274.381,1,0.100,32476.000,0.200,3475.000,0.300,878.000,0.500,711.000,1.000,155.000,5.000,0
"03/04/08","08:16:28",37905.000,"cc",28357.523,1,0.100,32846.000,0.200,3419.000,0.300,829.000,0.500,664.000,1.000,147.000,5.000,0
"03/04/08","08:16:34",38293.000,"cc",28262.457,1,0.100,33292.000,0.200,3365.000,0.300,905.000,0.500,602.000,1.000,129.000,5.000,0
"03/04/08","08:16:40",37988.000,"cc",28280.170,1,0.100,32958.000,0.200,3350.000,0.300,933.000,0.500,638.000,1.000,109.000,5.000,0
"03/04/08","08:16:46",37616.000,"cc",28417.680,1,0.100,32634.000,0.200,3288.000,0.300,876.000,0.500,648.000,1.000,170.000,5.000,0
"03/04/08","08:16:52",37396.000,"cc",28247.539,1,0.100,32480.000,0.200,3291.000,0.300,852.000,0.500,648.000,1.000,125.000,5.000,0
"03/04/08","08:16:58",37863.000,"cc",28301.268,1,0.100,32801.000,0.200,3314.000,0.300,953.000,0.500,670.000,1.000,125.000,5.000,0
"03/04/08","08:17:04",37622.000,"cc",28369.002,1,0.100,32849.000,0.200,3212.000,0.300,836.000,0.500,583.000,1.000,142.000,5.000,0
"03/04/08","08:17:10",37639.000,"cc",28322.652,1,0.100,32799.000,0.200,3295.000,0.300,836.000,0.500,614.000,1.000,95.000,5.000,0
"03/04/08","08:17:16",37562.000,"cc",28308.799,1,0.100,32820.000,0.200,3192.000,0.300,810.000,0.500,613.000,1.000,127.000,5.000,0